[[{"header":{"parameterUnit":"m.s-1","parameterCategory":2,"la1":30.2991,"la2":30.254,"lo1":-89.0895,"lo2":-89.0444,"dy":0.0017,"dx":0.0017,"nx":28,"ny":28,"refTime":"2025-04-27T03:00:00:Z","depth":"0","parameterNumber":2,"parameterNumberName":"U-component_of_CURRENTS"},"data":[0,0,0,0,0,0,0,0,0,0,0,0,0,0,0,0,0,0,0,0,0,0,0,0,0,0,0,0,0,0,0,0,0,0,0,0,0,0,0,0,0,0,0,0,0,0,0,0,0,0,0,0,0,0,0,0,0,0,-0.2485,-0.2486,0,-0.2564,-0.2564,-0.2565,-0.256,-0.2559,-0.2558,-0.2557,-0.2499,-0.2499,-0.2498,0,0,0,0,0,0,0,0,0,0,0,0,0,-0.2337,-0.2339,-0.2484,-0.2486,-0.2487,-0.2564,-0.2565,-0.2565,-0.256,-0.2559,-0.2558,-0.2557,-0.25,-0.2499,-0.2498,0,0,0,0,0,0,0,0,0,0,0,0,0,-0.2405,-0.234,-0.2484,-0.2495,-0.2497,-0.2564,-0.2565,-0.2566,-0.256,-0.2559,-0.2557,-0.2556,-0.25,-0.2499,-0.2498,-0.252,0,0,-0.2495,-0.2495,0,0,0,0,0,0,0,0,-0.2401,-0.241,-0.2493,-0.2495,-0.2497,-0.2553,-0.2492,-0.2544,-0.2561,-0.2534,-0.2557,-0.2555,-0.2507,-0.2506,-0.2522,-0.2517,-0.2515,-0.2495,-0.2494,-0.2494,-0.2494,0,0,0,0,0,0,0,-0.2396,-0.2406,-0.2513,-0.2494,-0.2497,-0.25,-0.2507,-0.2502,-0.2523,-0.2536,-0.2536,-0.255,-0.2507,-0.2523,-0.252,-0.2514,-0.2495,-0.2494,-0.2493,-0.2493,-0.2477,-0.2477,0,0,0,0,0,0,-0.2393,-0.2402,-0.2511,-0.2516,-0.2447,-0.2504,-0.2512,-0.2534,-0.2526,-0.2525,-0.2551,-0.2549,-0.2525,-0.2521,-0.2518,-0.251,-0.2494,-0.2493,-0.2492,-0.2477,-0.2477,-0.2477,0,0,0,0,0,0,-0.239,-0.2403,-0.2508,-0.2462,-0.2476,-0.2508,-0.2533,-0.2537,-0.255,-0.2539,-0.2535,-0.256,-0.2524,-0.2519,-0.2514,-0.2508,-0.2492,-0.2492,-0.2477,-0.2477,-0.2477,-0.2514,0,0,0,0,0,0,-0.2386,-0.2401,-0.241,-0.2462,-0.2478,-0.2548,-0.2534,-0.2539,-0.2562,-0.2561,-0.2546,-0.254,-0.2523,-0.2516,-0.2513,-0.2507,-0.2491,-0.2476,-0.2477,-0.2477,-0.2513,-0.2516,-0.2518,0,0,0,0,0,-0.238,-0.2407,-0.241,-0.2423,-0.2492,-0.2549,-0.2557,-0.2573,-0.2564,-0.2578,-0.2565,-0.254,-0.2515,-0.2516,-0.2512,-0.2506,-0.2476,-0.2477,-0.2477,-0.2512,-0.2515,-0.2518,0,0,0,0,0,0,-0.2349,-0.2411,-0.2415,-0.2458,-0.2497,-0.2549,-0.2565,-0.2578,-0.2584,-0.2574,-0.2553,-0.2547,-0.2539,-0.2521,-0.2523,-0.2501,-0.2487,-0.2487,-0.2515,-0.2518,-0.252,-0.2508,-0.249,0,0,0,0,0,-0.2347,-0.2377,-0.2435,-0.2465,-0.2487,-0.2525,-0.2547,-0.2564,-0.2582,-0.2584,-0.2574,-0.2555,-0.2542,-0.2529,-0.2519,-0.2514,-0.2487,-0.2503,-0.2506,-0.2508,-0.2496,-0.2472,-0.2471,-0.2478,-0.2478,-0.2478,0,0,-0.2341,-0.2379,-0.2394,-0.2459,-0.2488,-0.2525,-0.2534,-0.2577,-0.259,-0.2575,-0.2578,-0.2571,-0.2545,-0.2539,-0.2531,-0.2519,-0.2492,-0.2509,-0.2511,-0.2497,-0.2472,-0.2472,-0.2471,-0.2479,-0.2479,-0.2479,0,0,-0.2353,-0.2381,-0.2412,-0.2448,-0.2502,-0.2527,-0.254,-0.2592,-0.2596,-0.2612,-0.2596,-0.2588,-0.2574,-0.2555,-0.2541,-0.2553,-0.2515,-0.2545,-0.2542,-0.252,-0.2519,-0.2518,-0.2484,-0.2479,-0.2539,-0.2539,-0.2539,0,-0.234,-0.2387,-0.2428,-0.2468,-0.2487,-0.2526,-0.2554,-0.2577,-0.2615,-0.2609,-0.261,-0.2589,-0.2577,-0.2554,-0.2558,-0.2558,-0.2535,-0.2534,-0.2523,-0.2521,-0.252,-0.2485,-0.2479,-0.2541,-0.2541,-0.254,-0.254,0,-0.2378,-0.2409,-0.2432,-0.2484,-0.2511,-0.2546,-0.2582,-0.26,-0.2605,-0.2616,-0.2606,-0.2601,-0.258,-0.258,-0.2573,-0.2551,-0.2535,-0.2538,-0.2516,-0.2521,-0.2484,-0.2478,-0.2543,-0.2543,-0.2542,-0.2542,0,0,-0.2353,-0.244,-0.2442,-0.2456,-0.2517,-0.2541,-0.2565,-0.2588,-0.2587,-0.2607,-0.2594,-0.2587,-0.2583,-0.2567,-0.256,-0.2543,-0.2521,-0.2534,-0.2532,-0.2501,-0.246,-0.237,-0.2354,-0.2523,-0.2522,-0.2522,-0.2439,0,-0.2359,-0.242,-0.246,-0.2488,-0.2515,-0.2546,-0.2559,-0.258,-0.259,-0.2592,-0.2582,-0.2572,-0.2577,-0.2567,-0.2554,-0.2539,-0.2505,-0.2542,-0.2457,-0.2454,-0.2375,-0.2344,-0.2254,-0.2165,-0.2433,-0.2432,-0.2431,0,-0.2371,-0.2407,-0.2445,-0.2477,-0.2489,-0.2507,-0.2515,-0.2535,-0.255,-0.2556,-0.2551,-0.2551,-0.2535,-0.2539,-0.2495,-0.2519,-0.2482,-0.2464,-0.2461,-0.2355,-0.2352,-0.2202,-0.2143,-0.2133,-0.2421,-0.2421,-0.2422,0,-0.2317,-0.2382,-0.2401,-0.2418,-0.2474,-0.2475,-0.249,-0.2513,-0.2519,-0.2529,-0.2532,-0.252,-0.2509,-0.2479,-0.2451,-0.2471,-0.2392,-0.2415,-0.2289,-0.2283,-0.2174,-0.2158,-0.209,-0.2353,-0.2353,-0.2353,-0.2354,0,-0.2301,-0.231,-0.2376,-0.2387,-0.2383,-0.2433,-0.2428,-0.2447,-0.2473,-0.2466,-0.2501,-0.249,-0.2493,-0.2459,-0.2432,-0.2332,-0.2371,-0.2266,-0.2247,-0.2184,-0.2171,-0.2131,-0.2166,-0.235,-0.2351,-0.2352,-0.2352,0,-0.2239,-0.2293,-0.2311,-0.2358,-0.2363,-0.2356,-0.2387,-0.2385,-0.2428,-0.2421,-0.2422,-0.2456,-0.241,-0.239,-0.2334,-0.2288,-0.217,-0.2163,-0.208,-0.2052,-0.1921,-0.1962,-0.186,-0.1803,-0.2009,-0.2006,-0.2004,0,-0.2215,-0.2224,-0.2266,-0.2262,-0.2279,-0.2286,-0.2283,-0.2339,-0.2342,-0.2389,-0.237,-0.2354,-0.2305,-0.22,-0.2116,-0.2012,-0.2042,-0.1874,-0.1887,-0.1873,-0.1907,-0.1948,-0.1912,-0.1765,-0.176,-0.1757,-0.1754,0,-0.2145,-0.2165,-0.2174,-0.2172,-0.217,-0.2171,-0.2178,-0.2181,-0.2239,-0.2246,-0.2237,-0.221,-0.2117,-0.198,-0.1857,-0.1793,-0.1832,-0.1798,-0.1807,-0.1712,-0.1728,-0.1678,-0.1868,-0.1724,-0.1727,-0.1729,-0.1731,-0.1732,-0.2069,-0.2056,-0.2069,-0.2049,-0.2049,-0.203,-0.1986,-0.2019,-0.2008,-0.1987,-0.2054,-0.1983,-0.19,-0.1711,-0.1633,-0.1496,-0.1577,-0.1466,-0.1517,-0.1561,-0.1497,-0.1604,-0.1429,-0.143,-0.1431,-0.1432,-0.1433,0,-0.1958,-0.1952,-0.1937,-0.191,-0.1857,-0.1901,-0.1882,-0.1823,-0.1766,-0.1797,-0.1766,-0.1704,-0.1552,-0.1489,-0.1348,-0.1261,-0.124,-0.1244,-0.1302,-0.1277,-0.1376,-0.1355,-0.1125,-0.1125,-0.1125,-0.1125,-0.1125,-0.1125,-0.1898,-0.1845,-0.1837,-0.1713,-0.1688,-0.1576,-0.1536,-0.1481,-0.1468,-0.1402,-0.1397,-0.141,-0.1371,-0.1424,-0.128,-0.1195,-0.1187,-0.1136,-0.1173,-0.1283,-0.1309,-0.1334,-0.1321,-0.1088,-0.1088,-0.1018,-0.1018,-0.1018]},{"header":{"parameterUnit":"m.s-1","parameterCategory":2,"la1":30.2991,"la2":30.254,"lo1":-89.0895,"lo2":-89.0444,"dy":0.0017,"dx":0.0017,"nx":28,"ny":28,"refTime":"2025-04-27T03:00:00:Z","depth":"0","parameterNumber":3,"parameterNumberName":"V-component_of_CURRENTS"},"data":[0,0,0,0,0,0,0,0,0,0,0,0,0,0,0,0,0,0,0,0,0,0,0,0,0,0,0,0,0,0,0,0,0,0,0,0,0,0,0,0,0,0,0,0,0,0,0,0,0,0,0,0,0,0,0,0,0,0,-0.0343,-0.0342,0,-0.0222,-0.0221,-0.0219,-0.0132,-0.0132,-0.0132,-0.0131,-0.0019,-0.0016,-0.0014,0,0,0,0,0,0,0,0,0,0,0,0,0,-0.0403,-0.0402,-0.0343,-0.0342,-0.0341,-0.0223,-0.0221,-0.0219,-0.0132,-0.0132,-0.0131,-0.0131,-0.002,-0.0016,-0.0013,0,0,0,0,0,0,0,0,0,0,0,0,0,-0.0336,-0.0402,-0.0343,-0.0286,-0.028,-0.0223,-0.0221,-0.0218,-0.0132,-0.0132,-0.0131,-0.0131,-0.0021,-0.0017,-0.0013,0.0,0,0,-0.0001,0.0001,0,0,0,0,0,0,0,0,-0.034,-0.0333,-0.0296,-0.029,-0.0283,-0.0195,-0.02,-0.0147,-0.0133,-0.0185,-0.0131,-0.013,-0.0081,-0.0072,-0.0046,0.0005,0.001,-0.0,0.0002,0.0004,0.0005,0,0,0,0,0,0,0,-0.0345,-0.0338,-0.0292,-0.0295,-0.0287,-0.0234,-0.0224,-0.0189,-0.0135,-0.018,-0.0175,-0.0167,-0.0077,-0.005,-0.0042,0.0012,-0.0001,0.0003,0.0005,0.0007,0.0085,0.0085,0,0,0,0,0,0,-0.0373,-0.0343,-0.0296,-0.0288,-0.0315,-0.0234,-0.0223,-0.0221,-0.0135,-0.0122,-0.0168,-0.0163,-0.0057,-0.0047,-0.0038,-0.002,0.0004,0.0007,0.001,0.0085,0.0085,0.0084,0,0,0,0,0,0,-0.0374,-0.037,-0.0301,-0.0315,-0.0303,-0.0235,-0.0232,-0.0219,-0.0192,-0.0126,-0.0113,-0.0155,-0.0056,-0.0044,-0.0005,-0.0015,0.0009,0.0013,0.0085,0.0085,0.0085,0.0018,0,0,0,0,0,0,-0.0377,-0.0371,-0.0377,-0.0317,-0.0303,-0.0275,-0.0233,-0.0217,-0.019,-0.0183,-0.0111,-0.01,-0.0054,-0.0011,-0.0001,-0.0009,0.0016,0.0086,0.0085,0.0085,0.002,0.0015,0.001,0,0,0,0,0,-0.0379,-0.0393,-0.0378,-0.0372,-0.0315,-0.0276,-0.0263,-0.0209,-0.019,-0.0182,-0.013,-0.0102,-0.0008,-0.0008,0.0004,-0.0003,0.0086,0.0085,0.0085,0.0022,0.0016,0.001,0,0,0,0,0,0,-0.0415,-0.0384,-0.0366,-0.0368,-0.033,-0.0263,-0.0252,-0.0218,-0.0169,-0.0165,-0.0101,-0.0086,-0.0058,-0.0022,-0.0024,0.0017,0.0041,0.0043,-0.001,-0.0016,-0.0021,-0.0036,0.0019,0,0,0,0,0,-0.043,-0.0435,-0.039,-0.0389,-0.0378,-0.0318,-0.0295,-0.0262,-0.0213,-0.019,-0.0139,-0.009,-0.0051,-0.0027,0.0012,0.0036,0.008,0.0038,0.0033,0.0029,0.0024,0.008,0.008,0.0082,0.0082,0.0082,0,0,-0.0442,-0.0427,-0.0428,-0.0398,-0.0364,-0.0351,-0.0302,-0.0278,-0.0262,-0.0188,-0.0153,-0.0108,-0.005,-0.002,-0.0005,0.001,0.0052,0.0028,0.0024,0.0022,0.0079,0.0079,0.0079,0.0082,0.0082,0.0082,0,0,-0.0475,-0.0459,-0.0476,-0.0452,-0.0418,-0.038,-0.038,-0.0321,-0.0291,-0.0255,-0.02,-0.0159,-0.0098,-0.0052,-0.0024,-0.0034,0.0021,-0.0028,-0.0059,-0.0005,-0.0005,-0.0004,0.0055,0.0062,-0.0026,-0.0026,-0.0026,0,-0.0491,-0.0505,-0.0472,-0.0478,-0.0463,-0.0402,-0.0406,-0.0367,-0.03,-0.0278,-0.0257,-0.0159,-0.0113,-0.0068,-0.007,-0.0046,-0.0004,-0.0042,-0.0012,-0.001,-0.0008,0.0053,0.0061,-0.003,-0.0029,-0.0029,-0.0029,0,-0.0534,-0.054,-0.0547,-0.0538,-0.0516,-0.051,-0.046,-0.0433,-0.0393,-0.0346,-0.0296,-0.0223,-0.0164,-0.0146,-0.0109,-0.0076,-0.0047,-0.0028,0.0001,-0.0013,0.0053,0.0063,-0.0034,-0.0033,-0.0032,-0.0031,0,0,-0.0576,-0.058,-0.058,-0.0587,-0.0548,-0.0535,-0.0516,-0.0475,-0.0457,-0.0392,-0.0359,-0.029,-0.0244,-0.021,-0.0155,-0.0107,-0.0055,-0.0068,-0.0064,-0.0013,0.007,0.0115,0.013,-0.0032,-0.0031,-0.003,0.0112,0,-0.0616,-0.0655,-0.0635,-0.065,-0.0663,-0.0606,-0.059,-0.0544,-0.049,-0.0442,-0.0364,-0.0312,-0.027,-0.0239,-0.0188,-0.0088,-0.0034,-0.0095,0.0079,0.0085,0.0123,0.0141,0.0188,0.032,0.0122,0.0124,0.0125,0,-0.0662,-0.0682,-0.0719,-0.0714,-0.0712,-0.0707,-0.0666,-0.0642,-0.0562,-0.052,-0.0453,-0.0381,-0.0298,-0.0263,-0.0104,-0.0145,-0.0049,0.003,0.0038,0.0108,0.0147,0.0302,0.0346,0.049,0.0141,0.0139,0.0138,0,-0.0717,-0.0735,-0.077,-0.0768,-0.0753,-0.0752,-0.0733,-0.0669,-0.0646,-0.0562,-0.0527,-0.042,-0.0353,-0.0234,-0.0072,-0.0085,0.0111,0.0117,0.0251,0.0256,0.0344,0.0355,0.0546,0.0228,0.0227,0.0227,0.0226,0,-0.077,-0.0793,-0.0802,-0.082,-0.0848,-0.0811,-0.0813,-0.0774,-0.0713,-0.068,-0.0573,-0.0513,-0.0343,-0.0207,-0.0076,0.0125,0.0113,0.0254,0.0297,0.0323,0.0329,0.0498,0.0544,0.0232,0.0231,0.023,0.0229,0,-0.0827,-0.0833,-0.0873,-0.0878,-0.088,-0.0898,-0.0876,-0.0871,-0.0802,-0.0753,-0.0727,-0.0569,-0.0383,-0.0201,0.002,0.0132,0.0413,0.0384,0.0406,0.0448,0.0685,0.0724,0.0946,0.1043,0.0549,0.0551,0.0553,0,-0.086,-0.0892,-0.0926,-0.0951,-0.0957,-0.0972,-0.098,-0.0927,-0.0908,-0.078,-0.0757,-0.0566,-0.0411,-0.0068,0.0169,0.0425,0.0527,0.0607,0.0584,0.0718,0.0793,0.0814,0.088,0.0685,0.0687,0.069,0.0691,0,-0.0918,-0.0932,-0.0964,-0.1025,-0.1051,-0.1071,-0.1069,-0.1068,-0.0986,-0.0913,-0.0772,-0.0633,-0.0285,0.0036,0.0364,0.0516,0.072,0.0657,0.0802,0.092,0.0953,0.106,0.0572,0.071,0.0708,0.0707,0.0706,0.0705,-0.0949,-0.0992,-0.1039,-0.1089,-0.1124,-0.1151,-0.1155,-0.1121,-0.1069,-0.0924,-0.0785,-0.0508,-0.0073,0.0406,0.0573,0.0944,0.0897,0.1054,0.1093,0.1106,0.1189,0.0738,0.0913,0.0913,0.0912,0.0912,0.0911,0,-0.0983,-0.1033,-0.1094,-0.1151,-0.1193,-0.1194,-0.1195,-0.1157,-0.1079,-0.0893,-0.0707,-0.0144,0.0283,0.0678,0.1166,0.1366,0.1409,0.1467,0.1519,0.1569,0.1192,0.1187,0.1423,0.1423,0.1423,0.1423,0.1422,0.1422,-0.1003,-0.1073,-0.1109,-0.1188,-0.1223,-0.1239,-0.1231,-0.1147,-0.1002,-0.0655,-0.0302,-0.0009,0.0569,0.1269,0.1712,0.1758,0.1929,0.1917,0.2003,0.1744,0.1708,0.1673,0.1683,0.2018,0.2019,0.2381,0.2385,0.2388]}],[{"header":{"parameterUnit":"m.s-1","parameterCategory":2,"la1":30.2991,"la2":30.254,"lo1":-89.0895,"lo2":-89.0444,"dy":0.0017,"dx":0.0017,"nx":28,"ny":28,"refTime":"2025-04-27T03:00:00:Z","depth":"2","parameterNumber":2,"parameterNumberName":"U-component_of_CURRENTS"},"data":[0,0,0,0,0,0,0,0,0,0,0,0,0,0,0,0,0,0,0,0,0,0,0,0,0,0,0,0,0,0,0,0,0,0,0,0,0,0,0,0,0,0,0,0,0,0,0,0,0,0,0,0,0,0,0,0,0,0,-0.2109,-0.211,0,-0.2145,-0.2146,-0.2146,-0.2128,-0.2127,-0.2127,-0.2126,-0.2128,-0.2128,-0.2129,0,0,0,0,0,0,0,0,0,0,0,0,0,-0.2039,-0.204,-0.2109,-0.211,-0.211,-0.2145,-0.2146,-0.2146,-0.2128,-0.2127,-0.2126,-0.2125,-0.2127,-0.2128,-0.2129,0,0,0,0,0,0,0,0,0,0,0,0,0,-0.207,-0.2041,-0.2109,-0.2107,-0.2108,-0.2145,-0.2146,-0.2146,-0.2128,-0.2127,-0.2126,-0.2125,-0.2127,-0.2128,-0.2129,-0.2159,0,0,-0.2133,-0.2133,0,0,0,0,0,0,0,0,-0.2068,-0.2072,-0.2107,-0.2107,-0.2108,-0.2133,-0.2122,-0.2149,-0.2129,-0.2118,-0.2126,-0.2124,-0.2128,-0.2129,-0.2136,-0.2159,-0.2159,-0.2133,-0.2133,-0.2134,-0.2134,0,0,0,0,0,0,0,-0.2066,-0.2071,-0.2121,-0.2108,-0.2108,-0.211,-0.2112,-0.2127,-0.2127,-0.2119,-0.2119,-0.2126,-0.2128,-0.2135,-0.2136,-0.2159,-0.2133,-0.2134,-0.2134,-0.2135,-0.2189,-0.219,0,0,0,0,0,0,-0.2066,-0.2069,-0.212,-0.2123,-0.2087,-0.2112,-0.2115,-0.2124,-0.2128,-0.2128,-0.2127,-0.2125,-0.2134,-0.2135,-0.2136,-0.2162,-0.2134,-0.2135,-0.2136,-0.2188,-0.2189,-0.219,0,0,0,0,0,0,-0.2065,-0.2071,-0.2119,-0.2098,-0.2104,-0.2114,-0.2125,-0.2126,-0.2133,-0.2134,-0.2133,-0.2133,-0.2133,-0.2134,-0.2151,-0.2162,-0.2135,-0.2137,-0.2187,-0.2189,-0.219,-0.2221,0,0,0,0,0,0,-0.2063,-0.207,-0.2074,-0.2098,-0.2106,-0.2143,-0.2126,-0.2127,-0.214,-0.2138,-0.214,-0.2139,-0.2132,-0.215,-0.2152,-0.2163,-0.2137,-0.2186,-0.2188,-0.2189,-0.2219,-0.2223,-0.2226,0,0,0,0,0,-0.206,-0.2074,-0.2074,-0.208,-0.2112,-0.2144,-0.2148,-0.215,-0.2142,-0.2151,-0.2151,-0.2139,-0.216,-0.2152,-0.2155,-0.2166,-0.2186,-0.2188,-0.2189,-0.2217,-0.2222,-0.2226,0,0,0,0,0,0,-0.2046,-0.2075,-0.2075,-0.2096,-0.2118,-0.2142,-0.2151,-0.2156,-0.2165,-0.2161,-0.2155,-0.2155,-0.2173,-0.2169,-0.216,-0.2186,-0.2169,-0.2171,-0.2189,-0.2194,-0.2197,-0.219,-0.2138,0,0,0,0,0,-0.2047,-0.206,-0.209,-0.2105,-0.2118,-0.2136,-0.2148,-0.2155,-0.2169,-0.2171,-0.2174,-0.2177,-0.2185,-0.2188,-0.2196,-0.2216,-0.2195,-0.2223,-0.2227,-0.223,-0.2226,-0.2214,-0.2216,-0.2196,-0.2196,-0.2196,0,0,-0.2044,-0.2062,-0.2069,-0.2102,-0.2117,-0.2144,-0.2139,-0.2165,-0.2182,-0.2171,-0.2191,-0.2194,-0.2194,-0.2213,-0.222,-0.2209,-0.2224,-0.2232,-0.2235,-0.2229,-0.2216,-0.2218,-0.2219,-0.2197,-0.2197,-0.2196,0,0,-0.2051,-0.2065,-0.208,-0.2103,-0.2134,-0.2151,-0.216,-0.2191,-0.2197,-0.2225,-0.2217,-0.2226,-0.2244,-0.2243,-0.2244,-0.2276,-0.2247,-0.2279,-0.229,-0.2279,-0.228,-0.2281,-0.2251,-0.2249,-0.2277,-0.2277,-0.2278,0,-0.2046,-0.2069,-0.209,-0.2115,-0.2132,-0.2155,-0.2179,-0.2199,-0.2229,-0.2235,-0.2233,-0.2254,-0.2257,-0.2269,-0.2279,-0.2284,-0.2265,-0.2273,-0.2283,-0.2283,-0.2283,-0.2252,-0.225,-0.2279,-0.2279,-0.2279,-0.2279,0,-0.2066,-0.2086,-0.21,-0.2135,-0.216,-0.2184,-0.2218,-0.224,-0.2252,-0.2265,-0.2284,-0.2291,-0.2296,-0.2304,-0.2302,-0.2309,-0.2291,-0.2291,-0.2269,-0.2287,-0.2253,-0.225,-0.2282,-0.2281,-0.2281,-0.228,0,0,-0.2042,-0.2101,-0.2104,-0.2119,-0.217,-0.219,-0.2228,-0.226,-0.2273,-0.2299,-0.2308,-0.233,-0.2326,-0.2327,-0.2326,-0.2321,-0.231,-0.2308,-0.2307,-0.2273,-0.2269,-0.218,-0.2167,-0.2311,-0.2311,-0.2311,-0.2242,0,-0.2046,-0.2086,-0.2119,-0.2154,-0.2175,-0.2213,-0.2243,-0.2275,-0.2297,-0.2315,-0.2323,-0.2334,-0.2337,-0.2337,-0.2335,-0.2324,-0.2304,-0.2328,-0.226,-0.2258,-0.2172,-0.2161,-0.2017,-0.1936,-0.2238,-0.2238,-0.2237,0,-0.2045,-0.2073,-0.2107,-0.2155,-0.2168,-0.2194,-0.2234,-0.2265,-0.2301,-0.2318,-0.2332,-0.2338,-0.2344,-0.2339,-0.2315,-0.233,-0.2298,-0.2282,-0.2279,-0.218,-0.2162,-0.1969,-0.1918,-0.2231,-0.2232,-0.2232,-0.2232,0,-0.1999,-0.2058,-0.2079,-0.2098,-0.2162,-0.218,-0.221,-0.2256,-0.2278,-0.2311,-0.2324,-0.2335,-0.2333,-0.2313,-0.2286,-0.23,-0.2243,-0.2257,-0.2139,-0.2132,-0.1986,-0.1966,-0.2218,-0.2218,-0.2219,-0.2219,-0.2219,0,-0.1979,-0.1994,-0.2058,-0.2068,-0.209,-0.2147,-0.2172,-0.2207,-0.2254,-0.2265,-0.2312,-0.2314,-0.2327,-0.2302,-0.2276,-0.2187,-0.223,-0.2126,-0.2105,-0.1992,-0.1974,-0.2217,-0.2218,-0.2216,-0.2217,-0.2217,-0.2218,0,-0.1918,-0.1964,-0.1987,-0.205,-0.2067,-0.2078,-0.2142,-0.2156,-0.2217,-0.2233,-0.2242,-0.2289,-0.2254,-0.2242,-0.22,-0.2155,-0.2093,-0.2045,-0.1901,-0.1863,-0.1992,-0.1996,-0.1909,-0.1906,-0.1902,-0.19,-0.1898,0,-0.1889,-0.1895,-0.1951,-0.1959,-0.1984,-0.2018,-0.2036,-0.2115,-0.2133,-0.2204,-0.2195,-0.2195,-0.2154,-0.2066,-0.1987,-0.1893,-0.1984,-0.1715,-0.1716,-0.1971,-0.1959,-0.1968,-0.1975,-0.1535,-0.153,-0.1525,-0.1522,0,-0.1821,-0.1841,-0.1857,-0.1876,-0.1894,-0.1918,-0.1953,-0.1966,-0.2048,-0.2066,-0.207,-0.2047,-0.1969,-0.181,-0.1703,-0.164,-0.1725,-0.1626,-0.1918,-0.1639,-0.1612,-0.1603,-0.1624,-0.1485,-0.1489,-0.1492,-0.1494,-0.1495,-0.1753,-0.1746,-0.1766,-0.177,-0.1792,-0.1793,-0.1769,-0.1814,-0.182,-0.181,-0.188,-0.1789,-0.1758,-0.1508,-0.1409,-0.1332,-0.1455,-0.1403,-0.1418,-0.1436,-0.1409,-0.1379,-0.1202,-0.1204,-0.1205,-0.1207,-0.1208,0,-0.1656,-0.1656,-0.1657,-0.1655,-0.1626,-0.1679,-0.1684,-0.1634,-0.1588,-0.16,-0.157,-0.1386,-0.1265,-0.1238,-0.1053,-0.1006,-0.1016,-0.0972,-0.1,-0.1036,-0.1069,-0.1026,-0.0715,-0.0713,-0.0712,-0.0711,0,0,-0.1604,-0.1563,-0.1561,-0.1479,-0.1476,-0.1395,-0.1368,-0.1313,-0.1285,-0.1196,-0.1143,-0.121,-0.1209,-0.0977,-0.0908,-0.0784,-0.0906,-0.0738,-0.1134,-0.1204,-0.1235,-0.1312,-0.1285,0,0,0,0,0]},{"header":{"parameterUnit":"m.s-1","parameterCategory":2,"la1":30.2991,"la2":30.254,"lo1":-89.0895,"lo2":-89.0444,"dy":0.0017,"dx":0.0017,"nx":28,"ny":28,"refTime":"2025-04-27T03:00:00:Z","depth":"2","parameterNumber":3,"parameterNumberName":"V-component_of_CURRENTS"},"data":[0,0,0,0,0,0,0,0,0,0,0,0,0,0,0,0,0,0,0,0,0,0,0,0,0,0,0,0,0,0,0,0,0,0,0,0,0,0,0,0,0,0,0,0,0,0,0,0,0,0,0,0,0,0,0,0,0,0,-0.0348,-0.0348,0,-0.0267,-0.0266,-0.0265,-0.0201,-0.0201,-0.02,-0.02,-0.0084,-0.0081,-0.0079,0,0,0,0,0,0,0,0,0,0,0,0,0,-0.0379,-0.0379,-0.0348,-0.0347,-0.0347,-0.0267,-0.0266,-0.0264,-0.0201,-0.0201,-0.02,-0.02,-0.0085,-0.0082,-0.0078,0,0,0,0,0,0,0,0,0,0,0,0,0,-0.0336,-0.0379,-0.0348,-0.0307,-0.0303,-0.0267,-0.0266,-0.0264,-0.0201,-0.0201,-0.02,-0.02,-0.0086,-0.0082,-0.0078,-0.0065,0,0,-0.0066,-0.0064,0,0,0,0,0,0,0,0,-0.0339,-0.0335,-0.0314,-0.031,-0.0305,-0.0246,-0.0234,-0.0196,-0.0202,-0.0238,-0.02,-0.0199,-0.0137,-0.0129,-0.0112,-0.0059,-0.0054,-0.0065,-0.0063,-0.0061,-0.006,0,0,0,0,0,0,0,-0.0342,-0.0338,-0.0314,-0.0313,-0.0308,-0.0269,-0.0263,-0.0226,-0.0189,-0.0234,-0.023,-0.0225,-0.0134,-0.0116,-0.0108,-0.0052,-0.0065,-0.0062,-0.0059,-0.0058,0.0035,0.0035,0,0,0,0,0,0,-0.0361,-0.0341,-0.0316,-0.0311,-0.0324,-0.027,-0.0262,-0.0263,-0.019,-0.0179,-0.0226,-0.0222,-0.0123,-0.0113,-0.0104,-0.0074,-0.0061,-0.0057,-0.0055,0.0035,0.0035,0.0035,0,0,0,0,0,0,-0.0362,-0.036,-0.032,-0.0326,-0.0318,-0.027,-0.0272,-0.0262,-0.0244,-0.0184,-0.0172,-0.0218,-0.0122,-0.011,-0.0069,-0.0069,-0.0055,-0.0052,0.0035,0.0035,0.0035,-0.0019,0,0,0,0,0,0,-0.0364,-0.0361,-0.0367,-0.0328,-0.0319,-0.0305,-0.0272,-0.0261,-0.0243,-0.0238,-0.0174,-0.0162,-0.0121,-0.0075,-0.0065,-0.0063,-0.0048,0.0035,0.0035,0.0035,-0.0017,-0.0021,-0.0024,0,0,0,0,0,-0.0365,-0.038,-0.0368,-0.0365,-0.0329,-0.0306,-0.0298,-0.0259,-0.0244,-0.024,-0.0192,-0.0164,-0.0068,-0.0072,-0.0059,-0.0057,0.0035,0.0035,0.0035,-0.0016,-0.002,-0.0024,0,0,0,0,0,0,-0.0392,-0.0374,-0.036,-0.0367,-0.0342,-0.0296,-0.0291,-0.0266,-0.0226,-0.022,-0.0162,-0.0147,-0.0112,-0.0078,-0.0084,-0.003,-0.0013,-0.001,-0.0055,-0.0059,-0.0062,-0.0077,-0.0045,0,0,0,0,0,-0.0404,-0.0411,-0.0381,-0.0385,-0.0378,-0.0336,-0.0322,-0.0298,-0.0259,-0.024,-0.0194,-0.0145,-0.0103,-0.0077,-0.0037,-0.0007,0.003,0.0002,-0.0001,-0.0004,-0.0007,0.0046,0.0047,0.0035,0.0035,0.0035,0,0,-0.0414,-0.0406,-0.0408,-0.0392,-0.0369,-0.0362,-0.0325,-0.0312,-0.0298,-0.0235,-0.0201,-0.0157,-0.0099,-0.0063,-0.0045,-0.0033,0.0019,-0.0004,-0.0007,-0.0009,0.0046,0.0047,0.0049,0.0035,0.0035,0.0035,0,0,-0.0443,-0.0433,-0.045,-0.0435,-0.0413,-0.0385,-0.0386,-0.0345,-0.0319,-0.0286,-0.0236,-0.0191,-0.013,-0.0083,-0.0052,-0.0051,-0.0004,-0.0042,-0.0064,-0.0012,-0.0011,-0.0009,0.0039,0.0045,-0.0039,-0.004,-0.004,0,-0.0455,-0.0471,-0.0449,-0.0457,-0.0447,-0.0401,-0.0408,-0.0375,-0.0323,-0.03,-0.0284,-0.0185,-0.0138,-0.0083,-0.0081,-0.0058,-0.0024,-0.0055,-0.0017,-0.0015,-0.0012,0.0037,0.0045,-0.0042,-0.0042,-0.0042,-0.0041,0,-0.0494,-0.0503,-0.051,-0.0506,-0.0492,-0.049,-0.0448,-0.0425,-0.039,-0.035,-0.0296,-0.0227,-0.0167,-0.0145,-0.0111,-0.0068,-0.0049,-0.0032,-0.001,-0.0014,0.0038,0.0047,-0.0046,-0.0045,-0.0044,-0.0043,0,0,-0.0527,-0.0538,-0.0539,-0.0547,-0.0518,-0.0511,-0.0489,-0.0451,-0.0433,-0.0375,-0.0341,-0.0264,-0.0225,-0.0188,-0.0135,-0.0088,-0.0039,-0.0058,-0.0054,-0.0016,0.0074,0.0097,0.0109,-0.0016,-0.0015,-0.0014,0.0102,0,-0.0561,-0.06,-0.0586,-0.0602,-0.0614,-0.0567,-0.0549,-0.0507,-0.0458,-0.0412,-0.0332,-0.0282,-0.024,-0.0211,-0.0158,-0.0069,-0.0018,-0.0072,0.0077,0.0081,0.0098,0.012,0.0097,0.0199,0.0111,0.0113,0.0114,0,-0.0602,-0.0622,-0.0657,-0.0655,-0.0654,-0.0652,-0.0613,-0.059,-0.0512,-0.0473,-0.0406,-0.0339,-0.0255,-0.0225,-0.0076,-0.0114,-0.0029,0.0041,0.0047,0.0093,0.0121,0.0191,0.0219,0.013,0.0128,0.0127,0.0126,0,-0.0646,-0.0666,-0.0698,-0.0698,-0.0689,-0.0688,-0.0672,-0.0611,-0.0589,-0.0508,-0.0478,-0.0371,-0.031,-0.0198,-0.0054,-0.0063,0.011,0.0119,0.0224,0.0227,0.0249,0.0252,0.0224,0.0224,0.0224,0.0224,0.0223,0,-0.0689,-0.0711,-0.0725,-0.0743,-0.0768,-0.0739,-0.074,-0.0705,-0.0649,-0.0618,-0.0517,-0.0462,-0.0301,-0.0179,-0.006,0.0113,0.0112,0.0227,0.0262,0.023,0.0229,0.02,0.0196,0.0228,0.0227,0.0226,0.0226,0,-0.0732,-0.0743,-0.0781,-0.0791,-0.0796,-0.0813,-0.0799,-0.0792,-0.0732,-0.0688,-0.0664,-0.052,-0.0356,-0.0189,0.0012,0.0111,0.0268,0.033,0.028,0.0307,0.035,0.0341,0.0456,0.0458,0.0459,0.0461,0.0462,0,-0.0758,-0.0787,-0.0825,-0.0852,-0.0861,-0.0878,-0.0887,-0.0843,-0.0826,-0.0717,-0.0696,-0.053,-0.0394,-0.0094,0.0109,0.0332,0.0329,0.0433,0.0412,0.0353,0.0376,0.0365,0.0354,0.0425,0.0426,0.0426,0.0427,0,-0.08,-0.0817,-0.0849,-0.0911,-0.094,-0.0963,-0.0966,-0.0967,-0.0898,-0.0837,-0.0718,-0.0599,-0.0306,-0.0056,0.0223,0.0347,0.0391,0.0452,0.0423,0.0361,0.0331,0.035,0.034,0.0432,0.0431,0.0431,0.0431,0.0431,-0.0822,-0.086,-0.0908,-0.096,-0.1,-0.103,-0.1037,-0.1012,-0.0972,-0.0851,-0.0737,-0.0519,-0.0296,0.0119,0.0302,0.0473,0.047,0.0515,0.051,0.0505,0.0472,0.0446,0.0562,0.0562,0.0563,0.0563,0.0563,0,-0.0843,-0.0891,-0.095,-0.1011,-0.1055,-0.1063,-0.1072,-0.1041,-0.0979,-0.0836,-0.0683,-0.0395,-0.0116,0.0118,0.0393,0.0548,0.0529,0.057,0.0511,0.0505,0.0501,0.0464,0.0554,0.0554,0.0555,0.0555,0,0,-0.0858,-0.092,-0.0955,-0.1035,-0.1077,-0.1102,-0.1101,-0.1032,-0.0921,-0.0759,-0.0584,-0.0365,-0.0086,0.0105,0.0294,0.0434,0.0427,0.0446,0.0438,0.034,0.0333,0.0456,0.0393,0,0,0,0,0]}],[{"header":{"parameterUnit":"m.s-1","parameterCategory":2,"la1":30.2991,"la2":30.254,"lo1":-89.0895,"lo2":-89.0444,"dy":0.0017,"dx":0.0017,"nx":28,"ny":28,"refTime":"2025-04-27T03:00:00:Z","depth":"4","parameterNumber":2,"parameterNumberName":"U-component_of_CURRENTS"},"data":[0,0,0,0,0,0,0,0,0,0,0,0,0,0,0,0,0,0,0,0,0,0,0,0,0,0,0,0,0,0,0,0,0,0,0,0,0,0,0,0,0,0,0,0,0,0,0,0,0,0,0,0,0,0,0,0,0,0,-0.1414,-0.1415,0,-0.1457,-0.1457,-0.1458,-0.1479,-0.1479,-0.1479,-0.1479,-0.1557,-0.1558,-0.156,0,0,0,0,0,0,0,0,0,0,0,0,0,-0.1362,-0.1363,-0.1414,-0.1415,-0.1416,-0.1457,-0.1457,-0.1458,-0.1479,-0.1479,-0.1479,-0.1479,-0.1556,-0.1558,-0.156,0,0,0,0,0,0,0,0,0,0,0,0,0,-0.1391,-0.1363,-0.1414,-0.1432,-0.1434,-0.1457,-0.1457,-0.1458,-0.1479,-0.1479,-0.1479,-0.1479,-0.1555,-0.1558,-0.1561,-0.1574,0,0,-0.157,-0.1571,0,0,0,0,0,0,0,0,-0.1389,-0.1393,-0.1429,-0.1431,-0.1434,-0.1464,-0.1467,-0.1499,-0.1479,-0.146,-0.1479,-0.1479,-0.153,-0.1535,-0.1539,-0.1578,-0.1581,-0.157,-0.1572,-0.1573,-0.1574,0,0,0,0,0,0,0,-0.1387,-0.1391,-0.1429,-0.143,-0.1433,-0.1442,-0.1446,-0.1473,-0.1492,-0.1462,-0.1464,-0.1471,-0.1531,-0.1537,-0.1542,-0.1582,-0.157,-0.1572,-0.1574,-0.1575,-0.1695,-0.1697,0,0,0,0,0,0,-0.1385,-0.1389,-0.1428,-0.1431,-0.1413,-0.1443,-0.1448,-0.1453,-0.1492,-0.1498,-0.1471,-0.1472,-0.1531,-0.1538,-0.1544,-0.1621,-0.1573,-0.1576,-0.1577,-0.1694,-0.1695,-0.1697,0,0,0,0,0,0,-0.1383,-0.1388,-0.1426,-0.1412,-0.1418,-0.1444,-0.1449,-0.1454,-0.1482,-0.1498,-0.1505,-0.1498,-0.1532,-0.154,-0.159,-0.1622,-0.1577,-0.1579,-0.1692,-0.1694,-0.1696,-0.1736,0,0,0,0,0,0,-0.1382,-0.1387,-0.1401,-0.1412,-0.1419,-0.1454,-0.145,-0.1454,-0.1486,-0.1488,-0.1524,-0.153,-0.1533,-0.1585,-0.1593,-0.1625,-0.1582,-0.169,-0.1693,-0.1696,-0.1733,-0.1739,-0.1745,0,0,0,0,0,-0.1379,-0.1394,-0.1401,-0.1407,-0.1434,-0.1456,-0.146,-0.1478,-0.1487,-0.1504,-0.153,-0.153,-0.1608,-0.1589,-0.1597,-0.1631,-0.1689,-0.1692,-0.1695,-0.173,-0.1738,-0.1744,0,0,0,0,0,0,-0.138,-0.1398,-0.1406,-0.1426,-0.1448,-0.146,-0.1481,-0.1493,-0.1526,-0.1537,-0.155,-0.1558,-0.1612,-0.1618,-0.1597,-0.1673,-0.1648,-0.1653,-0.1672,-0.1679,-0.1685,-0.168,-0.1584,0,0,0,0,0,-0.1387,-0.1402,-0.1421,-0.144,-0.1452,-0.1472,-0.1488,-0.1502,-0.1527,-0.1542,-0.1569,-0.1599,-0.1628,-0.1651,-0.1676,-0.1721,-0.1703,-0.1748,-0.1754,-0.1759,-0.1761,-0.1761,-0.1766,-0.1708,-0.1708,-0.1708,0,0,-0.1394,-0.1405,-0.1416,-0.1442,-0.1459,-0.1485,-0.1483,-0.1515,-0.1545,-0.1547,-0.1605,-0.1624,-0.1645,-0.1692,-0.1718,-0.1704,-0.1765,-0.1763,-0.1767,-0.1766,-0.1764,-0.177,-0.1775,-0.171,-0.171,-0.1709,0,0,-0.1406,-0.1427,-0.1442,-0.1463,-0.1495,-0.151,-0.1526,-0.1557,-0.1582,-0.1634,-0.1642,-0.168,-0.1733,-0.1748,-0.1762,-0.1818,-0.1796,-0.1833,-0.1862,-0.1862,-0.1867,-0.187,-0.1845,-0.1846,-0.1837,-0.1837,-0.1837,0,-0.1416,-0.1434,-0.1452,-0.1473,-0.1497,-0.1525,-0.1553,-0.1583,-0.163,-0.1654,-0.1662,-0.1735,-0.1756,-0.1802,-0.1823,-0.1832,-0.1818,-0.1831,-0.1868,-0.1871,-0.1874,-0.1848,-0.1848,-0.1839,-0.1839,-0.1838,-0.1838,0,-0.143,-0.1459,-0.1473,-0.1508,-0.1539,-0.1569,-0.1609,-0.1651,-0.1688,-0.1712,-0.1775,-0.18,-0.1838,-0.1856,-0.1861,-0.19,-0.1877,-0.1873,-0.1845,-0.1882,-0.1852,-0.1852,-0.1842,-0.1841,-0.1841,-0.184,0,0,-0.1412,-0.147,-0.1478,-0.1503,-0.1561,-0.1584,-0.1647,-0.1698,-0.1737,-0.1788,-0.183,-0.1888,-0.1898,-0.1914,-0.1924,-0.1932,-0.1942,-0.1918,-0.1916,-0.1883,-0.1924,-0.1787,-0.1773,-0.1944,-0.1944,-0.1945,-0.189,0,-0.1419,-0.146,-0.1495,-0.155,-0.1574,-0.163,-0.1682,-0.1738,-0.1786,-0.1834,-0.1869,-0.1913,-0.192,-0.1941,-0.1954,-0.1951,-0.1945,-0.1956,-0.1901,-0.1899,-0.1765,-0.177,-0.1946,-0.189,-0.1889,-0.1889,-0.1889,0,-0.1412,-0.1443,-0.1493,-0.1567,-0.1585,-0.1631,-0.1715,-0.1764,-0.1837,-0.1874,-0.192,-0.1942,-0.1979,-0.1971,-0.1977,-0.1984,-0.1958,-0.1945,-0.1942,-0.18,-0.1762,-0.1848,-0.1889,-0.1889,-0.1889,-0.1889,-0.1889,0,-0.1366,-0.144,-0.1481,-0.1506,-0.1595,-0.1641,-0.1695,-0.1777,-0.1819,-0.1893,-0.1922,-0.1968,-0.1987,-0.1982,-0.1963,-0.1975,-0.194,-0.1948,-0.1794,-0.1784,-0.1907,-0.1904,-0.1933,-0.1933,-0.1933,-0.1933,-0.1933,0,-0.1337,-0.1374,-0.1468,-0.1487,-0.1548,-0.1622,-0.1692,-0.1751,-0.183,-0.1861,-0.1934,-0.1947,-0.1992,-0.1979,-0.196,-0.1862,-0.1934,-0.1788,-0.176,-0.1924,-0.1923,-0.1905,-0.1903,-0.1931,-0.1931,-0.1932,-0.1932,0,-0.1271,-0.1334,-0.1384,-0.1487,-0.1524,-0.1566,-0.168,-0.1717,-0.1807,-0.1846,-0.1868,-0.1934,-0.1911,-0.1918,-0.1895,-0.1833,-0.1771,-0.1714,-0.1869,-0.1852,-0.1617,-0.1618,-0.1541,-0.1536,-0.1532,-0.1528,-0.1525,0,-0.1236,-0.1254,-0.1365,-0.1397,-0.1448,-0.1528,-0.1574,-0.1687,-0.1716,-0.1813,-0.1806,-0.1829,-0.1848,-0.1696,-0.173,-0.1656,-0.1637,-0.1593,-0.1626,-0.1596,-0.1577,-0.1585,-0.1591,-0.1517,-0.1516,-0.1515,-0.1514,0,-0.1164,-0.1214,-0.1254,-0.1319,-0.1377,-0.1434,-0.1506,-0.1518,-0.1624,-0.1722,-0.1687,-0.1664,-0.1625,-0.1596,-0.1537,-0.1496,-0.1623,-0.1546,-0.1556,-0.1587,-0.1567,-0.1554,-0.1565,-0.1498,-0.1501,-0.1502,-0.1503,0,-0.1108,-0.1119,-0.1177,-0.1221,-0.1289,-0.1308,-0.1369,-0.1393,-0.1437,-0.1543,-0.1521,-0.1546,-0.1601,-0.1509,-0.1463,-0.1401,-0.1388,-0.1349,-0.1369,-0.1386,-0.1361,-0.1314,-0.1131,0,0,0,0,0,-0.1044,-0.1041,-0.1074,-0.1115,-0.1175,-0.1211,-0.1303,-0.1365,-0.1465,-0.1393,-0.1455,-0.1409,-0.1346,-0.1366,-0.1266,-0.1391,-0.1395,-0.1271,-0.1362,-0.1412,-0.143,-0.1414,0,0,0,0,0,0,-0.1001,-0.1024,-0.1032,-0.101,-0.1015,-0.1067,-0.1118,-0.1193,-0.1166,-0.1269,-0.1237,-0.1312,-0.1268,-0.1366,-0.1231,-0.1233,-0.1258,-0.1294,-0.129,-0.1402,-0.1418,-0.1432,-0.1422,0,0,0,0,0]},{"header":{"parameterUnit":"m.s-1","parameterCategory":2,"la1":30.2991,"la2":30.254,"lo1":-89.0895,"lo2":-89.0444,"dy":0.0017,"dx":0.0017,"nx":28,"ny":28,"refTime":"2025-04-27T03:00:00:Z","depth":"4","parameterNumber":3,"parameterNumberName":"V-component_of_CURRENTS"},"data":[0,0,0,0,0,0,0,0,0,0,0,0,0,0,0,0,0,0,0,0,0,0,0,0,0,0,0,0,0,0,0,0,0,0,0,0,0,0,0,0,0,0,0,0,0,0,0,0,0,0,0,0,0,0,0,0,0,0,-0.0271,-0.0271,0,-0.023,-0.0229,-0.0228,-0.0194,-0.0194,-0.0193,-0.0193,-0.0105,-0.0103,-0.0101,0,0,0,0,0,0,0,0,0,0,0,0,0,-0.0274,-0.0275,-0.0271,-0.0271,-0.027,-0.023,-0.0229,-0.0228,-0.0194,-0.0194,-0.0193,-0.0193,-0.0106,-0.0103,-0.0101,0,0,0,0,0,0,0,0,0,0,0,0,0,-0.0255,-0.0275,-0.0271,-0.0249,-0.0247,-0.023,-0.0229,-0.0228,-0.0194,-0.0194,-0.0193,-0.0193,-0.0107,-0.0104,-0.0101,-0.0087,0,0,-0.0091,-0.0089,0,0,0,0,0,0,0,0,-0.0257,-0.0255,-0.0253,-0.0251,-0.0248,-0.0218,-0.0198,-0.0179,-0.0194,-0.0212,-0.0193,-0.0193,-0.014,-0.0134,-0.0125,-0.0083,-0.008,-0.0091,-0.0089,-0.0087,-0.0086,0,0,0,0,0,0,0,-0.0258,-0.0256,-0.0253,-0.0253,-0.025,-0.0226,-0.0223,-0.0194,-0.0176,-0.0211,-0.0209,-0.0207,-0.0138,-0.0129,-0.0123,-0.0078,-0.0091,-0.0088,-0.0086,-0.0085,-0.0007,-0.0006,0,0,0,0,0,0,-0.0269,-0.0258,-0.0254,-0.0252,-0.0254,-0.0227,-0.0223,-0.0227,-0.0178,-0.0171,-0.0207,-0.0205,-0.0134,-0.0127,-0.012,-0.0093,-0.0087,-0.0084,-0.0082,-0.0007,-0.0007,-0.0006,0,0,0,0,0,0,-0.027,-0.027,-0.0256,-0.0255,-0.0252,-0.0228,-0.0231,-0.0226,-0.022,-0.0176,-0.0167,-0.0207,-0.0134,-0.0124,-0.0094,-0.009,-0.0083,-0.008,-0.0007,-0.0007,-0.0006,-0.0045,0,0,0,0,0,0,-0.027,-0.027,-0.0278,-0.0256,-0.0252,-0.0252,-0.0231,-0.0226,-0.022,-0.0217,-0.0172,-0.0164,-0.0133,-0.0099,-0.0091,-0.0085,-0.0077,-0.0007,-0.0007,-0.0007,-0.0044,-0.0046,-0.0048,0,0,0,0,0,-0.027,-0.0284,-0.0279,-0.0278,-0.0264,-0.0253,-0.0249,-0.0229,-0.022,-0.0221,-0.0187,-0.0165,-0.0091,-0.0096,-0.0087,-0.008,-0.0007,-0.0007,-0.0007,-0.0043,-0.0046,-0.0048,0,0,0,0,0,0,-0.0287,-0.0281,-0.0275,-0.0285,-0.0274,-0.0248,-0.0249,-0.0235,-0.021,-0.0207,-0.0164,-0.0152,-0.0125,-0.0098,-0.0105,-0.0057,-0.0045,-0.0043,-0.0076,-0.0079,-0.0081,-0.0092,-0.0075,0,0,0,0,0,-0.0296,-0.0306,-0.0291,-0.0299,-0.0297,-0.0275,-0.0269,-0.0256,-0.0232,-0.0221,-0.0188,-0.0151,-0.0115,-0.0095,-0.0064,-0.0038,-0.0009,-0.0027,-0.0029,-0.0031,-0.0033,0.0015,0.0017,-0.0005,-0.0005,-0.0005,0,0,-0.0304,-0.0303,-0.0308,-0.0304,-0.0293,-0.0292,-0.027,-0.0267,-0.026,-0.0215,-0.0194,-0.0159,-0.0111,-0.0081,-0.0066,-0.0058,-0.001,-0.0031,-0.0033,-0.0034,0.0016,0.0018,0.002,-0.0005,-0.0005,-0.0005,0,0,-0.0326,-0.0326,-0.0341,-0.0335,-0.0328,-0.0312,-0.0315,-0.0293,-0.0277,-0.0256,-0.0217,-0.018,-0.0135,-0.0093,-0.0067,-0.0061,-0.0026,-0.0054,-0.0068,-0.0021,-0.0019,-0.0017,0.0017,0.0023,-0.0051,-0.0051,-0.0051,0,-0.0336,-0.0353,-0.0342,-0.0353,-0.0351,-0.0324,-0.0333,-0.0312,-0.0281,-0.0264,-0.0256,-0.0176,-0.0137,-0.0086,-0.0083,-0.0065,-0.004,-0.0064,-0.0024,-0.0021,-0.0018,0.0016,0.0023,-0.0053,-0.0053,-0.0053,-0.0053,0,-0.0365,-0.0379,-0.0387,-0.0391,-0.0386,-0.039,-0.0364,-0.0351,-0.0329,-0.0301,-0.0257,-0.0201,-0.0152,-0.0132,-0.0105,-0.0062,-0.0053,-0.0036,-0.002,-0.0018,0.0018,0.0025,-0.0056,-0.0055,-0.0055,-0.0054,0,0,-0.0385,-0.0406,-0.0409,-0.0419,-0.0408,-0.0407,-0.0393,-0.0369,-0.0357,-0.0314,-0.0288,-0.0221,-0.019,-0.0159,-0.0115,-0.0072,-0.0028,-0.0051,-0.0047,-0.0022,0.0065,0.0049,0.0057,-0.0007,-0.0005,-0.0004,0.0079,0,-0.0411,-0.0446,-0.0443,-0.0464,-0.0477,-0.045,-0.044,-0.0411,-0.0377,-0.0343,-0.0275,-0.0235,-0.0199,-0.0177,-0.0127,-0.0054,-0.0009,-0.0053,0.0064,0.0067,0.0049,0.0065,-0.0,0.0085,0.0087,0.0088,0.0089,0,-0.0438,-0.0459,-0.0494,-0.0505,-0.0508,-0.0514,-0.0492,-0.0479,-0.0419,-0.0391,-0.0334,-0.0281,-0.0206,-0.0181,-0.0054,-0.0086,-0.0016,0.004,0.0045,0.0049,0.0066,0.0086,0.0104,0.0102,0.0101,0.01,0.01,0,-0.0461,-0.0491,-0.0523,-0.0528,-0.0535,-0.0542,-0.0538,-0.0496,-0.0483,-0.042,-0.0399,-0.0304,-0.0257,-0.0158,-0.0042,-0.0047,0.0094,0.0106,0.0161,0.016,0.0166,0.0162,0.0198,0.0198,0.0197,0.0197,0.0197,0,-0.0485,-0.051,-0.0543,-0.0561,-0.0592,-0.058,-0.0592,-0.057,-0.0532,-0.051,-0.0429,-0.0385,-0.025,-0.0152,-0.0049,0.0076,0.0094,0.016,0.0184,0.0146,0.014,0.0171,0.0167,0.02,0.02,0.0199,0.0199,0,-0.0502,-0.0525,-0.0567,-0.0596,-0.0609,-0.0631,-0.0643,-0.0641,-0.0603,-0.0572,-0.0554,-0.044,-0.0311,-0.0176,-0.0008,0.0062,0.0186,0.0228,0.017,0.0189,0.0221,0.0214,0.0293,0.0293,0.0293,0.0293,0.0293,0,-0.0511,-0.0539,-0.0599,-0.0631,-0.0651,-0.0682,-0.0699,-0.0681,-0.067,-0.0597,-0.0577,-0.0457,-0.0366,-0.0138,-0.0005,0.0183,0.021,0.0262,0.0249,0.0217,0.0233,0.0225,0.0218,0.0293,0.0294,0.0294,0.0294,0,-0.0525,-0.0555,-0.059,-0.0661,-0.0702,-0.0735,-0.0754,-0.0753,-0.0714,-0.0686,-0.0574,-0.0449,-0.0305,-0.0133,0.0009,0.0146,0.0219,0.0265,0.0265,0.0253,0.0219,0.0233,0.0226,0.0294,0.0294,0.0294,0.0294,0,-0.0531,-0.0563,-0.0619,-0.0675,-0.0733,-0.0765,-0.0776,-0.0748,-0.073,-0.0644,-0.0608,-0.0442,-0.0345,-0.0151,-0.0017,0.0108,0.0139,0.017,0.0176,0.0177,0.0113,0.0051,0.0098,0,0,0,0,0,-0.0528,-0.0567,-0.0626,-0.0688,-0.0745,-0.0774,-0.0797,-0.0794,-0.0762,-0.0685,-0.0641,-0.0497,-0.0283,-0.0185,-0.006,-0.0031,0.0141,0.0116,0.0175,0.0298,0.0297,0.024,0,0,0,0,0,0,-0.0529,-0.0585,-0.062,-0.0683,-0.0725,-0.0778,-0.0794,-0.0776,-0.0721,-0.0671,-0.0549,-0.0479,-0.0267,-0.0347,-0.0058,-0.0021,0.0029,0.0221,0.0223,0.0298,0.0297,0.0297,0.0238,0,0,0,0,0]}]]